Vertical_Velocity
-3 0 0 0 -2 -3 -2 6 2 -5 -6 3 2 -3 -4 -0 1 -1 -2 -4 -4 -4 -4 -5 -5 -4 -4 -4 -3 -3 -3 -3 -3 -3 -2 -2 -2 -2 -2 -2 -2 -2 -2 -1 -1 -1 -1 -1 -1 -1 -2 -1 -1 -0 -0 -0 0 0 1 1 1 1 1 1 0 -0 -1 -1 -1 -0 0 0 1 1 1 1 0 0 0 -0 -1 -1 -1 -1 -1 -2
0 1 2 2 1 -1 -2 6 5 -1 -7 -1 1 0 -3 -3 -1 -0 -1 -2 -3 -3 -4 -5 -4 -4 -4 -4 -3 -3 -3 -3 -4 -4 -3 -3 -3 -3 -3 -3 -2 -2 -2 -1 -1 -1 -1 -1 -1 -1 -1 -1 -1 -0 -0 0 0 0 1 1 1 1 1 1 0 -0 -0 -1 -1 -0 -0 0 0 0 -0 -0 -0 -1 -1 -1 -1 -1 -1 -0 -1 -2
2 1 6 8 4 -1 -2 4 5 4 -1 -3 -1 1 0 -3 -2 -1 -0 -2 -2 -2 -3 -4 -4 -4 -4 -3 -3 -2 -3 -3 -4 -4 -4 -4 -4 -3 -3 -3 -2 -2 -2 -1 -1 -1 -1 -1 -1 -1 -1 -1 -0 -0 -0 0 0 0 0 0 0 1 0 0 -0 -0 -0 -1 -1 -1 -1 -0 -0 -0 -1 -1 -1 -1 -1 -1 -1 -1 -1 -0 -0 -0
1 -0 4 7 3 -1 -0 2 3 4 3 -0 -1 0 1 -2 -2 -2 -1 -2 -2 -2 -2 -3 -4 -4 -3 -3 -2 -2 -2 -3 -3 -4 -4 -4 -4 -4 -4 -4 -3 -2 -2 -2 -1 -1 -1 -1 -1 -1 -1 -1 -1 -1 -1 -1 -1 -1 -1 -1 -0 -0 -0 -0 -0 -0 -0 -1 -1 -1 -1 -1 -1 -1 -1 -1 -1 -1 -1 -1 -2 -1 -1 -0 -0 -0
3 0 1 3 0 -2 -0 2 3 2 2 1 0 -0 -0 -1 -2 -2 -1 -1 -1 -2 -1 -2 -2 -3 -3 -2 -1 -1 -0 -1 -2 -2 -2 -3 -3 -4 -4 -4 -3 -3 -3 -3 -2 -2 -2 -2 -2 -2 -2 -2 -2 -2 -2 -2 -2 -2 -2 -1 -1 -1 -1 -1 -0 -0 -0 -0 -1 -1 -2 -2 -1 -1 -1 -1 -1 -1 -1 -2 -2 -1 -0 -0 -0 -0
3 2 -0 -0 -1 -2 -1 1 3 4 2 1 0 -0 -1 -0 -0 -0 -0 0 -0 -0 -0 -0 -1 -1 -1 -1 -0 1 1 1 1 0 -0 -1 -1 -2 -2 -2 -2 -2 -3 -3 -3 -3 -3 -3 -3 -3 -3 -3 -3 -3 -3 -3 -3 -2 -2 -2 -2 -1 -1 -1 -0 -0 0 0 -0 -1 -1 -1 -1 -1 -1 -1 -1 -1 -1 -2 -2 -1 -0 -1 -1 -1
1 4 2 -2 -2 -2 -0 -0 2 4 2 -1 -2 -1 -0 1 1 1 1 1 1 1 0 0 0 1 1 1 2 2 2 2 2 2 2 1 1 0 -0 -0 -1 -1 -2 -2 -2 -2 -2 -3 -3 -3 -3 -3 -4 -4 -3 -3 -3 -3 -3 -2 -2 -1 -1 -1 -0 -0 0 0 -0 -0 -1 -1 -1 -1 -1 -1 -1 -1 -1 -1 -1 -1 -1 -1 -1 -1
-3 1 6 0 -3 -3 -0 1 4 5 3 -1 -4 -4 -2 1 2 2 2 2 2 1 -0 -0 1 2 3 3 3 2 2 2 2 2 3 3 2 2 1 1 -0 -1 -1 -2 -2 -2 -3 -3 -3 -3 -3 -3 -3 -3 -2 -2 -2 -2 -2 -2 -2 -1 -1 -1 -0 -0 -0 -0 -0 -1 -1 -1 -1 -1 -1 -1 -1 -1 -0 -0 -0 -1 -1 -1 -2 -2
-5 -4 2 3 0 -3 -4 -0 5 8 6 0 -3 -5 -4 -2 -0 1 2 2 2 2 1 -1 -0 1 4 4 4 2 1 1 1 2 2 2 3 3 2 1 0 -0 -1 -1 -2 -2 -3 -3 -3 -3 -2 -2 -2 -2 -1 -1 -1 -1 -1 -1 -1 -1 -1 -1 -1 -1 -1 -1 -1 -1 -1 -1 -1 -1 -2 -2 -2 -1 -0 -0 -0 -1 -1 -1 -2 -2
-3 -3 -2 2 3 1 -3 -3 2 7 8 3 -0 -2 -2 -2 -2 -2 -2 -0 2 4 2 -0 -1 -1 1 3 3 2 0 -0 1 2 3 2 3 3 2 2 1 0 0 -0 -1 -1 -1 -1 -1 -1 -1 -1 -1 -1 -1 -1 -1 -1 -1 -1 -1 -1 -1 -1 -1 -1 -1 -1 -1 -1 -2 -2 -2 -2 -2 -3 -2 -2 -1 -0 -0 -0 -1 -1 -2 -2
-2 -1 -2 -1 1 2 0 -2 0 4 6 3 1 0 2 2 1 -2 -6 -4 -1 2 2 0 -1 -1 -2 -1 1 2 1 -0 1 2 4 4 4 4 3 2 1 0 0 0 0 0 0 1 1 0 0 -0 -1 -1 -1 -1 -1 -1 -1 -1 -1 -1 -1 -1 -1 -1 -2 -2 -2 -2 -2 -2 -2 -2 -3 -3 -3 -2 -1 -0 0 0 0 -1 -1 -2
-4 -3 -3 -4 -4 -3 -2 -2 -2 -0 1 -0 -2 -2 1 4 4 -0 -6 -8 -5 -1 0 -1 -1 -1 -1 -2 -1 -0 1 1 1 2 4 5 6 5 3 2 1 1 0 -0 -0 0 1 1 1 0 0 -0 -1 -1 -1 -1 -1 -1 -1 -1 -1 -1 -1 -1 -2 -2 -2 -2 -3 -3 -3 -3 -3 -3 -3 -3 -2 -2 -1 -0 0 1 1 0 -1 -1
-5 -5 -5 -6 -5 -4 -3 -3 -3 -2 -1 -1 -2 -2 -2 1 2 -0 -5 -7 -6 -3 -1 -3 -3 -2 1 0 -0 -1 -1 -0 1 2 3 4 5 4 2 1 1 1 1 -0 -0 0 1 0 -0 -1 -0 -0 -0 -0 0 -0 -1 -1 -1 -1 -1 -1 -2 -2 -2 -2 -2 -3 -3 -3 -3 -3 -3 -2 -2 -2 -1 -1 -1 -0 0 0 1 0 0 -0
-4 -3 -3 -3 -2 -1 -0 -1 -2 -2 -1 -0 -0 -1 -2 -1 -1 -1 -4 -6 -4 -1 0 -4 -5 -3 0 2 2 1 -0 -1 -1 -0 1 3 4 3 1 -0 -0 1 1 0 0 1 2 -0 -1 -2 -1 -0 -0 -0 -0 -0 -1 -1 -1 -1 -1 -1 -2 -2 -2 -2 -2 -2 -2 -2 -3 -2 -2 -1 -1 -1 -1 -1 -1 -1 -1 -0 -0 -0 -0 -0
0 1 -0 -1 -1 0 2 1 -1 -2 -2 -1 -1 -2 -3 -3 -2 -2 -3 -5 -3 -0 1 -3 -4 -4 -0 3 4 3 1 -2 -3 -2 -1 2 4 5 2 -1 -1 0 2 1 1 1 2 0 -1 -1 -0 -0 -0 -0 -0 -1 -1 -1 -1 -1 -1 -1 -1 -1 -1 -1 -2 -2 -2 -2 -1 -1 -0 -0 -0 -0 -1 -1 -2 -2 -1 -1 -1 -1 -1 -1
2 1 -1 -3 -3 -2 1 2 1 -2 -3 -2 -1 -1 -2 -3 -2 -1 -1 -3 -2 -1 -1 -4 -6 -7 -4 3 6 5 0 -3 -4 -5 -4 -0 5 8 5 0 -1 -0 3 2 2 1 2 1 0 -0 0 0 0 0 -0 -1 -1 -1 -1 -1 -1 -1 -1 -1 -1 -1 -2 -1 -1 -1 -0 0 0 0 0 -0 -1 -1 -2 -2 -2 -2 -2 -1 -1 -1
0 0 -2 -3 -4 -3 -0 2 2 0 -2 -2 -1 1 1 -1 -1 -0 0 -1 -1 -2 -2 -3 -6 -10 -12 -4 2 5 1 -5 -8 -9 -7 -3 4 9 9 3 -1 -1 2 3 3 3 2 2 1 1 1 1 1 1 -0 -0 -1 -1 -1 -1 -1 -2 -2 -2 -2 -2 -2 -1 -1 -0 0 1 0 -0 -1 -1 -1 -2 -2 -2 -2 -2 -2 -2 -2 -2
-1 -1 -1 -2 -3 -2 -0 1 -0 -1 -2 -2 -1 -0 0 1 1 1 -0 0 -0 -1 -2 -2 -4 -7 -10 -8 -1 4 4 -3 -9 -13 -13 -8 -0 6 8 3 0 -0 1 3 4 5 4 3 2 2 1 1 1 1 0 -0 -1 -1 -1 -1 -2 -2 -2 -2 -2 -2 -1 -1 -0 -0 0 -0 -0 -1 -1 -1 -1 -2 -2 -2 -2 -3 -3 -3 -2 -2
-2 -2 -2 -4 -4 -4 -1 -2 -3 -3 -2 -2 -1 -1 -2 -1 1 2 0 0 1 1 -0 -2 -4 -5 -5 -6 -1 6 10 5 -2 -9 -15 -13 -6 1 5 1 -1 -2 -1 2 5 6 5 3 2 2 1 1 1 1 1 -0 -1 -1 -2 -2 -2 -2 -2 -2 -2 -2 -1 -1 -0 -0 -0 -1 -1 -1 -1 -1 -1 -2 -2 -2 -3 -3 -3 -3 -2 -2
-3 -4 -4 -4 -4 -5 -5 -4 -2 -0 0 -1 -2 -4 -7 -5 -2 -0 -1 1 1 1 0 -1 -4 -4 -2 -3 -1 4 11 10 6 -1 -9 -11 -8 -2 5 1 -2 -5 -4 0 5 7 6 3 1 1 1 1 1 1 1 -0 -1 -2 -2 -3 -3 -3 -2 -2 -2 -2 -1 -0 -0 -0 -0 -1 -1 -1 -1 -1 -2 -2 -2 -2 -2 -2 -2 -2 -2 -2
-5 -6 -3 0 -0 -3 -6 -4 -1 2 1 -0 -3 -6 -8 -7 -6 -5 -4 -1 -0 -1 -1 -3 -5 -4 -0 -2 -2 1 9 11 8 2 -5 -10 -10 -5 4 2 -2 -6 -8 -1 4 7 5 2 1 1 3 2 2 1 0 -1 -1 -2 -3 -3 -3 -3 -2 -2 -2 -2 -1 -0 -0 -0 -0 -1 -1 -1 -1 -1 -2 -2 -2 -2 -2 -2 -2 -2 -2 -2
-3 -4 -1 3 2 -0 -4 -3 -1 1 2 1 -1 -4 -6 -5 -6 -6 -5 -2 -2 -2 -3 -3 -3 -2 -0 -2 -2 1 8 10 8 4 -2 -11 -15 -10 5 2 -4 -8 -9 -2 4 6 3 1 1 2 4 3 2 1 0 -0 -1 -2 -3 -3 -3 -2 -2 -2 -2 -1 -1 -0 -0 -0 -0 -1 -1 -1 -1 -1 -1 -1 -1 -1 -1 -1 -1 -1 -2 -2
9 8 6 4 3 1 -1 -1 -1 1 3 3 1 -0 -0 1 0 -2 -2 -1 -1 -1 -0 1 1 1 1 0 0 1 5 7 7 5 1 -10 -16 -12 4 2 -4 -9 -10 -2 2 3 1 1 2 3 4 4 3 2 1 -0 -1 -2 -2 -2 -2 -2 -2 -2 -1 -1 -0 -0 -0 -0 -0 -0 -1 -1 -1 -1 -1 -1 -1 -1 -1 -1 -1 -1 -2 -2
12 9 5 5 5 5 4 2 2 1 2 1 0 0 1 3 2 1 0 0 1 2 5 7 5 1 -1 2 1 1 1 5 6 5 1 -8 -12 -8 4 4 -2 -8 -10 -2 1 1 -1 0 2 4 5 5 4 3 1 -0 -1 -2 -2 -2 -2 -2 -2 -1 -1 -0 -0 -0 -0 -0 -0 -0 -0 -0 -0 -0 -0 -1 -1 -1 -1 -1 -1 -1 -2 -2
5 3 1 3 5 5 5 4 3 1 -0 -2 -3 -2 -2 -1 -0 0 -0 1 5 9 11 9 3 -2 -5 -1 -1 -2 -1 5 8 6 3 -6 -9 -7 3 5 1 -5 -8 -2 1 1 -1 -0 2 5 6 5 4 3 1 -0 -1 -2 -2 -2 -2 -1 -1 -1 -1 -0 -1 -1 -1 -1 -0 -0 -0 -0 -0 -0 -0 -0 -0 -0 -1 -1 -1 -1 -2 -2
0 -1 -1 0 2 3 4 3 2 0 -1 -1 -0 -0 -0 2 4 5 4 7 12 13 10 3 -3 -6 -4 -0 -0 -1 2 6 7 6 6 -2 -8 -9 -0 5 3 -2 -6 -1 1 1 -1 -1 2 5 6 4 3 2 0 -1 -1 -2 -2 -2 -1 -1 -1 -1 -1 -1 -1 -1 -1 -1 -1 -0 -0 -0 -0 -0 -0 -0 -0 -0 -0 -0 -1 -1 -2 -2
-1 -1 -1 0 2 2 2 2 1 0 0 1 1 2 3 4 5 5 6 8 8 5 1 -4 -6 -6 -4 -0 0 1 5 5 3 2 4 -0 -7 -9 -3 4 3 -1 -4 -2 0 1 -0 -1 1 4 5 4 3 2 1 -0 -1 -2 -2 -1 -1 -1 -1 -1 -1 -1 -1 -1 -1 -1 -0 -0 -0 -0 -0 -0 -0 0 0 -0 -0 -0 -0 -1 -2 -2
-1 -1 -0 1 1 2 2 1 1 1 2 2 3 4 4 3 1 -0 -3 -0 0 -1 -5 -6 -6 -6 -6 -4 -1 1 5 3 1 1 3 -2 -8 -9 -1 4 2 -1 -3 -3 -1 0 1 1 2 4 4 4 3 2 1 0 -1 -1 -2 -2 -2 -2 -1 -1 -1 -1 -1 -1 -1 -0 -0 -0 -0 -0 -0 -0 -0 -0 -0 -0 -0 -0 -0 -1 -2 -2
0 1 1 1 1 1 1 1 1 2 2 3 4 5 5 4 1 -1 -3 2 4 1 -7 -6 -5 -4 -6 -5 -4 -1 2 3 4 4 2 -4 -9 -8 2 4 1 -2 -2 -4 -4 -2 2 4 5 5 4 4 4 3 2 1 -0 -1 -2 -2 -2 -2 -2 -1 -1 -1 -1 -1 -1 -0 -0 0 0 0 0 -0 -0 -0 -0 -0 -0 -1 -1 -1 -2 -2
1 2 2 2 2 2 2 1 1 1 2 3 5 6 6 5 3 -0 -1 3 3 0 -6 -6 -4 -2 -3 -5 -6 -7 -4 3 7 7 2 -5 -8 -6 3 3 1 -1 -1 -4 -6 -5 -1 5 7 7 5 4 4 3 3 2 1 -0 -1 -2 -2 -2 -2 -2 -2 -1 -1 -1 -1 -1 -0 -0 0 0 0 -0 -0 -0 -0 -0 -1 -1 -2 -2 -1 -1
-1 1 1 1 2 2 2 1 0 -0 1 2 4 5 5 5 4 2 1 2 2 -0 -4 -5 -3 -1 -0 -2 -7 -10 -10 1 6 6 1 -4 -7 -5 2 2 -0 -1 0 -2 -5 -7 -6 1 5 6 4 3 2 3 3 2 1 -0 -1 -1 -1 -1 -2 -2 -2 -2 -1 -1 -1 -1 -0 -0 -0 -0 0 0 0 0 0 -0 -1 -2 -2 -2 -2 -1
-3 -1 -1 -0 0 1 1 0 -0 -0 -0 1 2 3 4 4 3 3 2 2 1 0 -2 -3 -3 -2 -1 -2 -5 -8 -8 0 3 3 -0 -4 -6 -5 1 1 -1 -1 -0 -1 -2 -5 -7 -3 1 4 2 1 1 1 2 1 0 -1 -1 -1 -1 -1 -2 -2 -2 -2 -1 -1 -1 -1 -0 -0 -0 -0 -0 0 0 1 1 1 -0 -1 -2 -2 -2 -1
-2 -2 -1 -0 -0 0 -0 -0 -0 -0 -0 0 1 2 2 2 2 2 2 2 2 1 -0 -1 -2 -3 -3 -3 -5 -5 -3 1 3 2 -0 -4 -6 -6 -3 -1 -1 -2 -1 -1 -2 -3 -4 -3 -1 2 2 2 2 2 2 1 -0 -1 -1 -1 -1 -1 -1 -2 -2 -2 -2 -1 -1 -0 -0 -1 -1 -1 -0 -0 1 1 1 1 1 -0 -1 -1 -1 -1
-2 -2 -1 -1 -0 -1 -1 -0 0 0 -0 0 1 1 1 1 1 1 2 2 2 2 1 -0 -2 -3 -4 -5 -6 -5 -2 2 4 3 0 -2 -5 -6 -4 -3 -2 -2 -1 -2 -3 -3 -4 -3 -1 -0 -0 2 4 4 3 1 0 -0 -0 -1 -1 -1 -2 -2 -2 -2 -1 -1 -1 -0 -0 -1 -1 -1 -0 0 1 1 2 1 1 1 -0 -1 -1 -1
-2 -2 -1 -0 -1 -1 -1 -0 0 1 1 1 0 0 -0 0 1 1 2 2 2 2 1 -0 -1 -2 -3 -4 -6 -6 -2 2 4 3 1 -1 -3 -4 -4 -4 -2 -1 -1 -4 -4 -4 -5 -4 -2 -1 -2 -0 3 6 5 2 1 0 0 0 -0 -1 -1 -1 -2 -2 -1 -1 -1 -0 -0 -0 -1 -0 -0 0 1 1 2 2 1 1 1 -0 -1 -1
-3 -2 -1 -0 -1 -1 -2 -1 -0 0 1 1 1 0 0 0 1 1 2 2 2 1 1 0 0 -0 -0 -2 -4 -4 -2 1 3 3 -0 -2 -2 -3 -4 -4 -2 -0 -1 -4 -4 -4 -4 -4 -3 -2 -1 -1 2 5 6 3 1 0 0 0 0 -0 -1 -1 -2 -2 -1 -1 -0 -0 -0 -0 -0 -0 0 1 1 1 2 2 1 1 1 0 -0 -1
-4 -3 -2 -1 -1 -1 -2 -2 -1 0 0 0 0 1 1 1 1 2 2 2 1 1 1 1 1 1 1 -0 -2 -2 -2 1 2 1 -1 -2 -2 -2 -4 -4 -2 -0 -0 -2 -4 -4 -4 -5 -4 -2 -1 -0 1 2 4 2 1 1 1 0 0 0 -0 -1 -2 -2 -1 -1 -0 -0 -0 -0 -0 -0 0 1 1 1 1 1 1 1 1 -0 -1 -1
-4 -3 -2 -1 -0 -1 -1 -1 -0 0 1 0 1 1 2 2 2 1 1 1 1 1 1 1 1 1 1 1 -0 -1 -0 0 0 -0 -1 -1 -1 -2 -3 -3 -2 -1 0 -1 -2 -3 -4 -4 -4 -3 -1 0 1 2 2 1 1 0 0 1 1 1 0 -1 -2 -2 -1 -1 -1 -0 -0 -0 -0 -0 -0 0 1 1 1 1 1 1 1 -0 -1 -1
-3 -2 -1 -0 0 -0 -0 0 1 1 1 0 0 1 1 1 1 1 1 1 1 1 1 0 0 0 0 0 -0 -0 -0 0 0 0 0 -0 -0 -1 -2 -2 -2 -1 0 -0 -1 -2 -3 -3 -3 -3 -2 -1 0 1 2 1 1 -0 -0 0 1 1 0 -1 -2 -2 -2 -1 -1 -1 -1 -1 -0 -0 -0 -0 0 1 1 1 1 1 1 -0 -1 -1
-2 -1 -0 0 1 1 1 1 1 1 0 0 1 1 1 1 1 1 2 1 1 1 1 0 -0 -0 -0 0 0 -0 0 0 1 1 1 1 0 -0 -1 -2 -2 -2 -1 -1 -1 -2 -2 -3 -3 -2 -1 -2 -1 -0 1 1 1 0 -1 -0 1 2 1 -0 -1 -2 -2 -2 -2 -1 -1 -1 -1 -1 -0 -0 -0 0 0 1 1 1 1 -0 -1 -1
-2 -1 -0 1 1 2 2 1 1 1 0 1 1 1 1 1 1 1 1 2 2 2 1 1 0 0 1 1 2 1 1 1 2 2 2 1 1 -0 -1 -2 -2 -2 -2 -2 -3 -3 -2 -3 -3 -3 -2 -2 -2 -2 -0 1 2 1 -1 -1 0 1 2 1 0 -1 -2 -2 -2 -2 -1 -1 -1 -1 -0 -0 -0 -0 -0 0 0 1 1 0 -0 -1
-1 -1 -1 0 1 1 2 2 1 1 0 0 0 1 1 0 -0 -0 -0 0 1 2 2 1 1 0 1 2 4 4 4 4 4 3 2 2 2 1 -0 -1 -2 -2 -2 -3 -4 -4 -2 -2 -2 -3 -2 -2 -3 -3 -2 1 2 2 1 -0 -1 -0 1 2 1 -1 -2 -2 -2 -2 -2 -2 -1 -1 -0 -0 -0 -0 -0 -0 -0 0 1 1 0 -0
-1 -1 -1 -0 0 0 0 0 0 -0 -1 -1 -0 -0 -0 -1 -2 -2 -2 -1 -0 1 2 1 0 -0 -0 2 4 7 8 7 6 5 4 4 3 2 1 -0 -1 -1 -2 -3 -4 -4 -3 -2 -2 -2 -1 -2 -3 -4 -3 0 2 3 3 1 -1 -1 0 2 1 -0 -1 -2 -2 -3 -3 -2 -1 -1 -0 -0 -0 -0 -0 -0 -0 -0 0 1 1 1
-2 -1 -1 -0 -0 -0 0 -0 -0 -0 -0 -0 0 0 0 -1 -1 -2 -3 -2 -2 -1 0 -0 -1 -1 -1 0 3 6 8 8 8 7 6 5 4 3 2 1 0 -0 -1 -2 -3 -4 -3 -2 -1 -1 -0 -2 -3 -4 -2 -0 2 3 4 2 -0 -1 -1 1 1 1 -0 -1 -2 -3 -3 -2 -1 -0 -0 -0 -0 -0 -0 -0 -0 -1 -1 -0 1 2
-2 -1 -1 0 1 1 1 -0 -0 -0 -0 -0 0 1 1 1 -0 -1 -2 -3 -2 -1 -1 -1 -2 -3 -3 -1 2 4 5 6 7 7 6 5 4 3 2 1 0 -0 -1 -2 -2 -3 -3 -3 -2 -1 -1 -2 -3 -3 -2 -0 1 3 4 2 0 -1 -1 -0 0 0 -0 -1 -1 -2 -3 -2 -1 -0 -0 -0 -0 -0 0 0 -0 -1 -2 -1 1 2
-2 -1 -0 1 1 1 0 -1 -1 -1 -1 -1 0 1 1 1 1 0 -1 -1 -2 -1 -1 -1 -1 -2 -3 -1 0 2 3 4 5 6 6 5 3 2 2 1 1 -0 -1 -2 -2 -2 -3 -3 -3 -2 -2 -3 -3 -2 -0 1 1 2 3 2 0 -1 -1 0 -0 -1 -1 -1 -1 -2 -3 -2 -1 -0 -0 -1 -0 -0 0 1 0 -0 -2 -2 -0 2
0 1 1 1 1 -0 -1 -2 -2 -3 -2 -1 -1 0 0 -0 -0 -0 -1 -1 -1 -1 -2 -2 -2 -2 -3 -2 -1 0 1 2 3 5 6 5 4 3 3 2 1 0 -0 -1 -2 -2 -3 -3 -3 -3 -3 -4 -4 -3 -1 1 2 2 2 1 0 0 1 1 0 -1 -2 -2 -2 -2 -2 -2 -1 -1 -1 -0 -0 -0 0 1 1 0 -1 -2 -1 0
1 1 0 -0 -1 -1 -2 -2 -2 -2 -2 -2 -1 -0 -0 -0 -1 -1 -2 -1 -1 -1 -2 -2 -3 -3 -3 -3 -2 -1 -1 -1 1 3 5 5 5 5 5 4 3 1 0 -1 -1 -2 -2 -3 -3 -3 -3 -3 -4 -3 -1 1 1 1 0 -0 0 1 2 2 1 -1 -3 -2 -2 -2 -2 -1 -1 -1 -1 -0 -0 0 0 1 1 1 -0 -1 -1 -1
0 -0 -1 -1 -2 -2 -2 -2 -1 -1 -1 -1 -1 -0 0 1 0 -0 -2 -2 -1 -1 -1 -2 -2 -3 -3 -3 -2 -2 -2 -2 -1 1 3 4 5 5 5 5 4 3 1 -0 -1 -1 -2 -2 -2 -2 -1 -1 -2 -2 -2 -0 0 -0 -1 -1 -0 1 2 2 1 -0 -2 -2 -3 -2 -2 -1 -1 -0 -0 -0 -0 -0 0 1 1 1 1 -0 -1 -1
0 -1 -1 -2 -2 -2 -1 -1 -0 -0 -0 -0 0 0 1 2 2 1 -0 -1 -1 -1 -1 -1 -1 -2 -2 -2 -1 -1 -1 -1 -1 -0 1 2 3 3 3 4 4 3 2 1 0 -0 -1 -2 -2 -2 0 1 1 -0 -2 -2 -2 -2 -2 -1 -0 0 0 1 1 1 -1 -2 -2 -2 -2 -1 -1 -0 0 0 0 0 0 1 1 2 1 1 0 0
-0 -1 -1 -1 -1 -1 -1 -0 -0 -0 -0 -0 0 1 1 2 2 2 2 1 1 -0 -0 -0 -0 -1 -1 -1 -1 -0 -0 -1 -1 -0 1 2 2 2 2 3 3 3 2 1 0 -0 -1 -2 -2 -2 0 3 3 1 -2 -3 -3 -3 -2 -1 -1 -1 -1 0 1 1 -0 -1 -1 -1 -1 -1 -1 -0 0 0 1 0 1 1 1 2 2 2 2 1
Height
2953 2952 2951 2950 2950 2949 2947 2946 2946 2945 2943 2942 2941 2941 2941 2940 2939 2938 2937 2936 2935 2935 2934 2934 2933 2933 2932 2932 2932 2931 2931 2930 2930 2930 2930 2929 2929 2929 2929 2928 2928 2928 2928 2928 2928 2928 2928 2928 2927 2927 2927 2927 2926 2926 2926 2926 2925 2925 2925 2925 2925 2924 2924 2924 2924 2924 2924 2925 2925 2925 2926 2926 2927 2927 2928 2928 2929 2929 2930 2930 2931 2932 2933 2934 2935 2937
2950 2948 2947 2947 2946 2945 2943 2942 2942 2941 2939 2938 2937 2937 2936 2936 2935 2934 2933 2933 2932 2931 2930 2930 2930 2929 2929 2928 2928 2927 2927 2926 2926 2926 2925 2925 2925 2925 2925 2924 2924 2924 2924 2924 2924 2924 2924 2924 2924 2923 2923 2923 2923 2923 2922 2922 2922 2922 2921 2921 2921 2921 2921 2920 2920 2920 2920 2921 2921 2921 2922 2922 2923 2923 2924 2924 2924 2925 2925 2926 2927 2927 2928 2930 2930 2932
2946 2945 2943 2943 2942 2941 2939 2938 2937 2936 2935 2934 2933 2933 2932 2932 2931 2930 2930 2929 2928 2928 2927 2926 2926 2925 2925 2925 2925 2924 2924 2923 2923 2922 2922 2921 2921 2921 2921 2920 2920 2920 2920 2920 2920 2920 2920 2920 2920 2920 2920 2919 2919 2919 2919 2919 2919 2919 2918 2918 2918 2918 2917 2917 2917 2917 2917 2917 2917 2917 2918 2918 2919 2919 2919 2920 2920 2920 2921 2921 2922 2923 2924 2925 2926 2927
2943 2941 2939 2938 2937 2937 2935 2935 2933 2932 2931 2930 2930 2929 2929 2928 2927 2926 2926 2925 2925 2924 2924 2924 2923 2922 2922 2922 2922 2922 2921 2921 2920 2920 2919 2918 2918 2918 2917 2917 2917 2917 2917 2917 2917 2917 2917 2916 2916 2916 2916 2916 2916 2915 2915 2915 2915 2915 2915 2915 2915 2915 2914 2914 2914 2914 2913 2913 2913 2913 2914 2914 2914 2915 2915 2915 2916 2916 2917 2917 2918 2919 2920 2921 2922 2923
2939 2937 2935 2934 2933 2932 2931 2930 2930 2928 2927 2927 2926 2926 2925 2924 2924 2923 2923 2922 2922 2922 2921 2921 2920 2920 2920 2920 2920 2920 2919 2919 2918 2917 2917 2916 2915 2915 2915 2914 2914 2914 2914 2914 2913 2913 2913 2913 2913 2913 2913 2913 2912 2912 2912 2912 2912 2912 2912 2912 2911 2911 2911 2911 2910 2910 2910 2910 2910 2910 2910 2910 2910 2910 2911 2911 2912 2912 2913 2913 2914 2915 2915 2916 2917 2918
2934 2933 2931 2930 2928 2927 2927 2926 2925 2925 2924 2923 2923 2922 2922 2921 2921 2920 2920 2920 2920 2919 2919 2919 2918 2918 2918 2918 2918 2918 2917 2917 2916 2915 2915 2914 2914 2913 2912 2912 2911 2911 2911 2910 2910 2910 2910 2910 2910 2910 2910 2910 2910 2909 2909 2909 2909 2909 2909 2908 2908 2908 2908 2908 2907 2907 2907 2907 2906 2906 2906 2906 2906 2906 2907 2907 2908 2908 2908 2909 2910 2910 2911 2912 2913 2914
2930 2929 2928 2926 2925 2923 2923 2922 2922 2921 2921 2920 2919 2919 2919 2918 2918 2918 2918 2918 2918 2917 2917 2917 2917 2916 2916 2916 2916 2916 2915 2915 2914 2914 2913 2912 2912 2911 2910 2910 2909 2909 2908 2908 2908 2907 2907 2907 2907 2907 2907 2906 2906 2906 2906 2906 2906 2905 2905 2905 2905 2905 2905 2904 2904 2904 2903 2903 2903 2902 2902 2902 2902 2902 2902 2903 2904 2904 2905 2905 2906 2906 2907 2907 2908 2909
2925 2924 2924 2922 2921 2920 2919 2919 2919 2919 2918 2917 2916 2915 2915 2915 2915 2915 2915 2915 2915 2915 2915 2914 2914 2914 2914 2914 2914 2913 2912 2912 2911 2911 2910 2910 2909 2909 2908 2907 2907 2906 2906 2905 2905 2905 2904 2904 2904 2904 2903 2903 2903 2903 2903 2902 2902 2902 2902 2902 2901 2901 2901 2901 2900 2900 2900 2900 2899 2899 2898 2898 2898 2898 2898 2899 2899 2900 2900 2901 2902 2902 2903 2903 2904 2905
2921 2920 2919 2919 2918 2917 2915 2915 2916 2916 2915 2914 2913 2912 2912 2911 2912 2912 2912 2912 2912 2912 2912 2911 2911 2911 2911 2911 2911 2910 2910 2909 2909 2908 2908 2907 2907 2906 2905 2905 2904 2904 2903 2903 2902 2902 2901 2901 2900 2900 2900 2900 2900 2899 2899 2899 2899 2899 2898 2898 2898 2898 2898 2897 2897 2897 2896 2896 2895 2895 2895 2895 2894 2894 2894 2895 2895 2896 2896 2897 2898 2899 2899 2900 2900 2901
2918 2917 2916 2915 2915 2914 2913 2912 2912 2913 2913 2912 2910 2910 2909 2909 2909 2909 2909 2909 2909 2909 2909 2909 2908 2908 2908 2908 2908 2907 2907 2906 2905 2905 2905 2904 2904 2904 2903 2903 2902 2901 2901 2900 2900 2899 2898 2898 2897 2897 2896 2896 2895 2895 2895 2895 2895 2895 2895 2895 2894 2894 2894 2894 2893 2893 2893 2892 2892 2891 2891 2891 2890 2890 2890 2890 2891 2891 2892 2893 2894 2895 2895 2896 2896 2897
2915 2914 2914 2912 2912 2911 2911 2910 2909 2910 2910 2909 2908 2908 2908 2907 2907 2905 2905 2904 2905 2905 2906 2905 2905 2904 2904 2904 2905 2904 2904 2903 2903 2902 2902 2902 2901 2901 2900 2900 2900 2899 2898 2898 2897 2896 2895 2895 2894 2893 2893 2892 2892 2892 2891 2891 2891 2891 2891 2891 2890 2890 2890 2890 2890 2889 2889 2888 2888 2888 2887 2887 2887 2886 2886 2886 2887 2887 2888 2889 2890 2891 2891 2892 2892 2893
2912 2911 2910 2909 2909 2908 2908 2907 2907 2906 2906 2906 2905 2905 2905 2905 2904 2903 2901 2900 2901 2902 2902 2902 2901 2901 2901 2901 2901 2901 2900 2900 2900 2900 2899 2899 2899 2899 2898 2897 2897 2896 2896 2895 2894 2894 2893 2892 2891 2890 2890 2889 2889 2888 2888 2888 2888 2887 2887 2887 2887 2886 2886 2886 2885 2885 2885 2884 2884 2884 2883 2883 2883 2883 2883 2883 2883 2884 2884 2885 2886 2886 2887 2888 2888 2889
2909 2908 2908 2907 2906 2906 2906 2905 2905 2905 2904 2904 2903 2902 2902 2902 2901 2900 2899 2898 2898 2899 2899 2898 2898 2898 2898 2898 2898 2898 2897 2897 2896 2896 2896 2897 2896 2896 2895 2895 2894 2894 2893 2892 2892 2891 2890 2889 2888 2887 2887 2886 2886 2885 2885 2885 2884 2884 2884 2883 2883 2883 2882 2882 2882 2881 2881 2880 2880 2880 2880 2879 2879 2879 2879 2879 2880 2880 2880 2881 2881 2882 2883 2883 2884 2885
2907 2907 2906 2905 2905 2905 2905 2905 2904 2903 2902 2902 2901 2900 2899 2899 2899 2898 2897 2896 2896 2896 2896 2895 2895 2895 2895 2895 2895 2895 2894 2894 2893 2893 2894 2894 2894 2894 2893 2892 2892 2891 2891 2890 2890 2889 2888 2886 2885 2885 2884 2884 2883 2883 2882 2882 2881 2881 2880 2880 2880 2879 2879 2879 2878 2878 2877 2877 2877 2876 2876 2876 2875 2875 2876 2876 2876 2876 2876 2877 2877 2878 2878 2879 2880 2880
2906 2906 2905 2904 2904 2904 2904 2903 2902 2901 2901 2900 2900 2898 2898 2897 2897 2896 2895 2895 2894 2894 2894 2893 2892 2892 2893 2893 2893 2893 2892 2891 2890 2890 2890 2891 2891 2891 2890 2890 2889 2889 2889 2888 2887 2886 2885 2884 2883 2882 2882 2881 2881 2880 2880 2879 2878 2878 2877 2877 2877 2876 2876 2875 2875 2875 2875 2874 2874 2873 2873 2872 2872 2872 2872 2872 2872 2872 2872 2873 2873 2873 2874 2874 2875 2875
2905 2904 2903 2902 2901 2901 2901 2901 2900 2900 2899 2898 2898 2897 2896 2895 2895 2895 2894 2893 2893 2892 2891 2890 2890 2889 2890 2890 2891 2890 2889 2888 2887 2887 2888 2888 2889 2889 2888 2887 2887 2887 2886 2886 2885 2884 2883 2882 2881 2880 2880 2879 2879 2878 2877 2876 2876 2875 2875 2874 2874 2873 2873 2873 2872 2872 2871 2871 2870 2870 2869 2869 2869 2869 2868 2868 2868 2868 2868 2868 2868 2869 2869 2870 2870 2871
2903 2902 2901 2900 2899 2899 2899 2899 2899 2898 2897 2896 2896 2895 2895 2894 2893 2893 2893 2892 2891 2890 2890 2889 2887 2886 2886 2887 2888 2888 2887 2885 2884 2884 2885 2885 2886 2886 2886 2885 2884 2884 2884 2884 2883 2882 2881 2880 2880 2879 2878 2877 2876 2876 2875 2874 2873 2873 2872 2871 2871 2870 2870 2870 2869 2869 2868 2867 2867 2866 2866 2865 2865 2865 2864 2864 2864 2863 2864 2864 2864 2864 2864 2865 2865 2866
2901 2900 2900 2898 2897 2897 2897 2897 2896 2896 2895 2894 2894 2893 2893 2892 2892 2891 2890 2890 2890 2889 2888 2887 2886 2885 2884 2884 2885 2885 2885 2884 2882 2881 2881 2882 2883 2883 2883 2882 2881 2881 2881 2881 2881 2880 2879 2878 2877 2877 2876 2875 2874 2873 2872 2871 2870 2870 2869 2869 2868 2867 2867 2866 2866 2865 2865 2864 2863 2863 2862 2862 2861 2860 2860 2860 2859 2859 2859 2859 2859 2859 2860 2860 2861 2862
2899 2899 2898 2897 2895 2895 2895 2895 2894 2894 2893 2892 2892 2891 2890 2890 2890 2889 2889 2888 2887 2887 2886 2885 2884 2883 2883 2882 2883 2884 2884 2882 2881 2880 2879 2879 2880 2880 2880 2879 2878 2878 2878 2878 2878 2878 2877 2876 2875 2874 2874 2873 2872 2870 2870 2869 2868 2867 2866 2865 2865 2864 2864 2863 2862 2862 2861 2860 2860 2860 2859 2858 2857 2857 2856 2856 2855 2855 2855 2855 2855 2855 2855 2855 2856 2857
2896 2896 2896 2895 2894 2893 2893 2893 2893 2893 2892 2891 2890 2889 2888 2887 2887 2887 2886 2886 2885 2885 2884 2883 2882 2881 2881 2880 2881 2881 2882 2881 2880 2878 2877 2876 2877 2877 2878 2877 2875 2875 2875 2875 2875 2875 2874 2873 2872 2872 2871 2870 2869 2868 2867 2866 2865 2864 2863 2862 2862 2861 2860 2860 2859 2858 2858 2857 2857 2856 2855 2855 2854 2853 2853 2852 2852 2851 2851 2850 2850 2850 2851 2851 2852 2853
2894 2894 2894 2894 2893 2892 2890 2890 2891 2891 2890 2889 2888 2887 2886 2885 2885 2884 2884 2883 2883 2882 2882 2881 2880 2879 2879 2878 2878 2879 2880 2879 2878 2876 2875 2874 2874 2874 2875 2874 2873 2872 2872 2872 2873 2872 2871 2870 2870 2869 2868 2867 2866 2865 2864 2863 2862 2861 2860 2859 2859 2858 2857 2856 2855 2855 2854 2854 2853 2852 2852 2851 2850 2850 2849 2849 2848 2848 2847 2847 2847 2847 2847 2847 2848 2849
2892 2891 2891 2891 2891 2890 2889 2888 2889 2889 2889 2888 2887 2885 2885 2884 2883 2882 2881 2881 2880 2880 2879 2878 2877 2877 2876 2875 2875 2876 2877 2877 2876 2875 2873 2871 2870 2871 2872 2871 2870 2869 2869 2869 2870 2870 2869 2868 2867 2866 2866 2865 2864 2863 2862 2860 2860 2858 2857 2856 2855 2855 2854 2853 2853 2852 2851 2850 2850 2849 2848 2848 2847 2846 2846 2845 2845 2844 2844 2844 2843 2843 2844 2844 2845 2845
2891 2890 2890 2889 2888 2887 2886 2886 2886 2886 2886 2886 2885 2884 2883 2882 2881 2880 2880 2879 2878 2877 2876 2875 2875 2874 2873 2873 2872 2873 2873 2874 2874 2873 2872 2869 2868 2868 2870 2869 2867 2866 2866 2866 2867 2866 2865 2865 2865 2864 2864 2863 2862 2860 2859 2858 2857 2856 2855 2854 2853 2852 2851 2850 2850 2849 2848 2847 2846 2846 2845 2844 2844 2843 2843 2842 2842 2841 2841 2840 2840 2840 2840 2841 2841 2842
2890 2888 2887 2886 2886 2885 2885 2884 2884 2884 2884 2884 2883 2882 2881 2880 2879 2878 2878 2877 2876 2875 2874 2873 2872 2871 2870 2870 2869 2869 2870 2870 2871 2871 2870 2867 2865 2866 2867 2866 2865 2864 2863 2864 2864 2863 2863 2862 2862 2862 2861 2860 2859 2858 2857 2855 2854 2853 2852 2851 2850 2850 2849 2848 2847 2846 2845 2844 2844 2843 2842 2841 2841 2840 2840 2839 2839 2838 2838 2838 2838 2838 2838 2838 2839 2839
2887 2885 2885 2884 2884 2883 2883 2882 2882 2882 2881 2881 2881 2880 2879 2878 2877 2876 2876 2875 2875 2874 2872 2871 2869 2868 2867 2867 2866 2866 2866 2867 2868 2868 2867 2865 2863 2863 2864 2864 2863 2862 2861 2861 2861 2860 2860 2860 2860 2860 2859 2858 2857 2856 2855 2853 2852 2851 2850 2849 2848 2847 2846 2845 2845 2844 2843 2842 2841 2840 2839 2839 2838 2837 2837 2836 2836 2836 2835 2835 2835 2835 2835 2836 2836 2836
2884 2883 2882 2882 2881 2881 2880 2880 2879 2879 2879 2879 2879 2878 2877 2876 2876 2875 2874 2874 2873 2871 2870 2868 2866 2865 2865 2864 2864 2863 2864 2864 2864 2864 2864 2862 2861 2860 2861 2862 2861 2860 2859 2859 2858 2858 2857 2857 2857 2857 2857 2856 2855 2854 2852 2851 2850 2849 2848 2846 2845 2845 2844 2843 2842 2841 2840 2839 2838 2837 2837 2836 2835 2835 2835 2834 2834 2833 2833 2833 2833 2833 2833 2834 2834 2834
2881 2881 2880 2880 2879 2878 2878 2877 2877 2876 2876 2876 2876 2875 2874 2874 2873 2872 2871 2870 2869 2868 2867 2865 2864 2863 2862 2862 2861 2861 2861 2861 2861 2861 2861 2860 2858 2857 2858 2859 2859 2858 2857 2856 2855 2855 2855 2854 2855 2855 2855 2854 2853 2852 2850 2849 2848 2847 2845 2844 2843 2842 2841 2840 2839 2838 2837 2836 2836 2835 2835 2834 2833 2833 2832 2832 2831 2831 2831 2831 2831 2831 2831 2831 2831 2831
2879 2879 2878 2877 2877 2876 2875 2875 2874 2874 2874 2874 2873 2873 2872 2870 2869 2868 2867 2866 2866 2865 2864 2862 2861 2860 2860 2859 2859 2859 2859 2858 2858 2858 2858 2857 2855 2855 2855 2856 2856 2855 2855 2854 2853 2853 2852 2852 2853 2853 2852 2852 2851 2850 2849 2847 2846 2845 2843 2842 2841 2840 2839 2838 2837 2836 2835 2834 2833 2833 2832 2832 2831 2831 2830 2830 2830 2829 2829 2829 2829 2829 2829 2829 2829 2829
2877 2876 2875 2875 2874 2874 2873 2872 2872 2871 2871 2871 2870 2870 2869 2868 2866 2865 2864 2864 2864 2862 2860 2860 2859 2859 2858 2857 2857 2856 2856 2855 2855 2856 2855 2855 2853 2852 2853 2854 2854 2853 2853 2851 2850 2850 2850 2850 2851 2851 2850 2850 2849 2848 2847 2846 2844 2843 2841 2840 2839 2838 2837 2836 2835 2834 2833 2832 2831 2830 2830 2830 2829 2829 2829 2828 2828 2827 2827 2827 2827 2826 2826 2826 2826 2827
2874 2873 2873 2872 2872 2871 2870 2870 2869 2869 2868 2868 2867 2867 2866 2865 2863 2862 2861 2861 2860 2859 2858 2857 2856 2856 2856 2855 2854 2853 2852 2853 2853 2854 2853 2852 2850 2850 2851 2851 2851 2851 2850 2850 2848 2847 2847 2848 2849 2849 2848 2848 2847 2846 2845 2844 2843 2841 2840 2838 2837 2836 2835 2834 2833 2832 2831 2830 2829 2829 2828 2828 2828 2827 2827 2826 2826 2826 2825 2825 2825 2824 2824 2824 2824 2825
2870 2870 2870 2869 2869 2868 2867 2867 2866 2865 2865 2865 2864 2863 2862 2861 2860 2859 2859 2858 2857 2856 2855 2854 2854 2854 2854 2853 2852 2850 2849 2850 2850 2851 2850 2850 2849 2848 2849 2849 2849 2849 2849 2848 2847 2845 2844 2845 2846 2846 2846 2845 2845 2844 2843 2842 2841 2839 2838 2837 2835 2835 2833 2832 2831 2830 2829 2828 2828 2827 2826 2826 2826 2825 2825 2825 2825 2824 2824 2823 2823 2822 2822 2822 2822 2823
2866 2866 2866 2866 2865 2865 2864 2864 2863 2862 2861 2861 2860 2860 2859 2858 2857 2856 2855 2855 2854 2853 2853 2852 2852 2851 2851 2851 2850 2848 2847 2847 2848 2848 2847 2847 2846 2846 2846 2846 2846 2846 2846 2846 2845 2844 2843 2842 2843 2843 2843 2843 2842 2842 2841 2840 2839 2837 2836 2835 2834 2833 2832 2830 2829 2828 2827 2826 2826 2825 2825 2825 2824 2824 2823 2823 2823 2823 2822 2822 2821 2821 2820 2820 2820 2820
2863 2863 2862 2862 2862 2861 2861 2860 2859 2859 2858 2857 2856 2855 2855 2854 2853 2853 2852 2852 2851 2850 2850 2850 2849 2849 2849 2848 2847 2846 2845 2845 2845 2845 2845 2845 2844 2844 2844 2844 2844 2844 2844 2844 2843 2843 2842 2841 2841 2841 2841 2840 2840 2840 2839 2838 2837 2835 2835 2833 2832 2831 2830 2829 2828 2827 2826 2825 2824 2824 2823 2823 2822 2822 2822 2821 2821 2821 2820 2820 2820 2819 2819 2819 2818 2818
2859 2859 2859 2859 2858 2858 2857 2856 2856 2855 2854 2853 2852 2851 2851 2850 2850 2849 2849 2849 2848 2848 2848 2847 2847 2846 2846 2845 2844 2843 2843 2843 2843 2843 2843 2842 2842 2841 2841 2841 2841 2841 2842 2841 2841 2841 2840 2840 2839 2839 2838 2838 2838 2838 2837 2836 2835 2834 2833 2832 2830 2830 2828 2827 2826 2825 2825 2824 2823 2822 2822 2821 2821 2820 2820 2820 2820 2819 2819 2819 2818 2818 2818 2818 2817 2817
2856 2856 2856 2855 2855 2854 2854 2853 2852 2851 2850 2850 2849 2848 2847 2847 2846 2846 2846 2845 2845 2845 2845 2845 2845 2844 2844 2843 2841 2841 2840 2840 2841 2841 2841 2840 2840 2840 2840 2839 2840 2840 2839 2839 2839 2839 2838 2838 2837 2837 2836 2836 2836 2836 2835 2835 2834 2833 2831 2830 2829 2828 2827 2826 2825 2824 2823 2822 2822 2821 2820 2820 2819 2819 2819 2818 2818 2818 2817 2817 2817 2816 2816 2816 2816 2816
2853 2853 2853 2852 2852 2851 2850 2850 2849 2848 2847 2846 2845 2845 2844 2844 2844 2843 2843 2843 2843 2842 2842 2842 2841 2841 2841 2840 2839 2839 2838 2839 2839 2839 2838 2838 2838 2838 2837 2837 2837 2837 2837 2837 2837 2836 2836 2835 2835 2835 2834 2834 2834 2834 2833 2833 2832 2831 2830 2829 2828 2827 2825 2824 2823 2822 2822 2821 2820 2820 2819 2819 2818 2818 2817 2817 2817 2816 2816 2815 2815 2815 2815 2814 2814 2814
2851 2850 2850 2850 2849 2848 2847 2846 2845 2845 2844 2843 2842 2842 2841 2841 2841 2840 2840 2840 2840 2840 2839 2839 2839 2838 2838 2837 2837 2836 2836 2836 2837 2836 2836 2836 2836 2835 2835 2835 2835 2835 2835 2835 2834 2834 2834 2833 2833 2833 2832 2832 2831 2831 2831 2830 2830 2829 2828 2827 2826 2825 2824 2823 2822 2821 2820 2820 2819 2819 2818 2817 2817 2816 2816 2816 2815 2815 2815 2815 2814 2814 2813 2813 2812 2812
2849 2848 2848 2847 2846 2845 2845 2844 2843 2842 2841 2840 2840 2839 2839 2838 2838 2838 2838 2838 2837 2837 2837 2836 2836 2835 2835 2835 2835 2834 2834 2834 2834 2834 2834 2834 2834 2833 2833 2833 2833 2832 2832 2832 2832 2832 2831 2831 2831 2830 2830 2830 2830 2830 2829 2828 2828 2827 2826 2826 2825 2824 2823 2822 2820 2820 2819 2818 2818 2817 2816 2816 2815 2815 2815 2815 2814 2814 2814 2813 2813 2813 2812 2812 2811 2811
2846 2845 2845 2845 2844 2843 2842 2841 2840 2840 2839 2838 2838 2837 2837 2836 2836 2836 2835 2835 2835 2835 2834 2834 2834 2833 2833 2833 2833 2832 2832 2832 2832 2832 2832 2832 2831 2831 2831 2830 2830 2830 2830 2830 2830 2830 2829 2829 2829 2829 2828 2828 2828 2828 2827 2826 2826 2825 2825 2824 2823 2823 2822 2820 2819 2818 2818 2817 2816 2816 2815 2815 2814 2814 2814 2814 2813 2813 2813 2812 2812 2812 2811 2811 2811 2810
2844 2843 2843 2842 2842 2841 2840 2840 2839 2838 2837 2836 2836 2835 2835 2835 2834 2834 2833 2833 2832 2832 2832 2831 2831 2831 2831 2831 2830 2830 2830 2830 2830 2830 2830 2829 2829 2829 2828 2828 2828 2828 2827 2827 2827 2827 2827 2827 2827 2827 2827 2826 2826 2825 2825 2825 2824 2824 2823 2822 2822 2821 2820 2819 2818 2817 2816 2815 2815 2815 2814 2814 2813 2813 2813 2812 2812 2812 2812 2811 2811 2811 2811 2810 2810 2810
2841 2841 2840 2840 2840 2839 2838 2838 2837 2836 2835 2835 2834 2834 2833 2833 2832 2832 2831 2831 2830 2830 2830 2829 2829 2829 2829 2829 2829 2828 2828 2828 2828 2827 2827 2827 2827 2826 2826 2825 2825 2825 2825 2825 2825 2825 2825 2825 2825 2825 2825 2825 2824 2824 2823 2823 2823 2822 2821 2820 2820 2820 2819 2818 2817 2816 2815 2814 2814 2813 2813 2812 2812 2812 2811 2811 2811 2811 2811 2811 2810 2810 2810 2810 2810 2810
2839 2839 2838 2838 2837 2837 2836 2836 2835 2835 2834 2834 2833 2832 2831 2831 2830 2830 2830 2829 2829 2828 2828 2827 2827 2826 2826 2826 2826 2826 2826 2826 2825 2825 2825 2824 2824 2824 2824 2823 2823 2823 2823 2823 2823 2823 2823 2823 2823 2823 2823 2823 2822 2822 2821 2821 2821 2820 2820 2819 2818 2818 2817 2817 2816 2815 2814 2813 2812 2812 2811 2811 2811 2810 2810 2810 2810 2810 2810 2810 2810 2810 2810 2810 2809 2809
2837 2836 2836 2835 2835 2835 2835 2834 2833 2833 2832 2832 2831 2830 2830 2829 2829 2828 2828 2827 2827 2826 2826 2825 2825 2825 2825 2825 2825 2824 2824 2824 2823 2823 2822 2822 2822 2821 2821 2821 2821 2821 2820 2820 2820 2820 2820 2821 2821 2821 2821 2820 2820 2820 2819 2820 2819 2819 2818 2817 2817 2816 2816 2815 2815 2814 2813 2812 2811 2810 2810 2810 2810 2810 2810 2809 2809 2809 2809 2809 2809 2809 2809 2809 2809 2809
2835 2834 2834 2833 2833 2833 2832 2832 2831 2831 2830 2830 2829 2829 2828 2827 2827 2826 2826 2825 2825 2825 2824 2823 2823 2822 2822 2822 2822 2822 2822 2822 2821 2821 2820 2820 2820 2820 2819 2819 2819 2818 2818 2818 2818 2818 2818 2818 2818 2818 2818 2818 2818 2818 2818 2818 2817 2817 2816 2816 2815 2815 2814 2814 2813 2812 2812 2811 2810 2809 2809 2809 2809 2809 2808 2808 2808 2808 2808 2808 2808 2808 2808 2808 2809 2809
2832 2832 2831 2831 2831 2830 2830 2830 2829 2829 2828 2828 2827 2827 2826 2825 2825 2824 2824 2823 2823 2822 2822 2821 2821 2820 2820 2820 2820 2820 2820 2820 2819 2819 2819 2818 2818 2817 2817 2817 2816 2816 2816 2815 2815 2815 2815 2816 2816 2816 2816 2816 2816 2816 2816 2816 2815 2815 2815 2814 2813 2813 2812 2812 2811 2811 2810 2810 2809 2808 2807 2807 2807 2807 2807 2807 2807 2807 2807 2807 2807 2807 2807 2808 2808 2808
2830 2830 2829 2829 2829 2828 2828 2828 2827 2827 2826 2826 2825 2825 2824 2824 2823 2822 2821 2821 2820 2820 2819 2819 2819 2818 2818 2817 2817 2818 2817 2817 2817 2817 2816 2816 2815 2815 2815 2814 2814 2814 2813 2813 2813 2813 2813 2813 2813 2813 2813 2814 2814 2814 2814 2814 2814 2813 2813 2812 2812 2811 2811 2810 2810 2809 2809 2808 2808 2807 2806 2806 2806 2806 2806 2806 2806 2806 2806 2806 2806 2806 2807 2807 2807 2808
2829 2828 2828 2827 2827 2827 2826 2826 2825 2825 2824 2824 2823 2823 2822 2821 2820 2820 2819 2818 2818 2817 2817 2816 2816 2815 2815 2815 2815 2815 2815 2815 2815 2815 2814 2814 2813 2813 2813 2812 2812 2811 2811 2811 2811 2810 2810 2810 2811 2811 2811 2811 2811 2811 2812 2812 2812 2811 2811 2810 2810 2810 2809 2809 2808 2808 2807 2807 2806 2806 2805 2805 2805 2805 2805 2805 2805 2805 2805 2805 2805 2806 2806 2806 2807 2807
2827 2826 2826 2825 2825 2825 2825 2824 2824 2823 2822 2822 2821 2820 2820 2819 2818 2817 2816 2816 2815 2815 2814 2814 2813 2813 2812 2812 2812 2812 2812 2812 2812 2812 2812 2812 2811 2811 2810 2810 2810 2809 2809 2808 2808 2808 2808 2808 2808 2808 2809 2809 2809 2809 2809 2810 2810 2809 2809 2808 2808 2808 2808 2807 2807 2806 2805 2805 2805 2804 2804 2804 2803 2803 2804 2804 2804 2804 2804 2804 2805 2805 2805 2805 2806 2806
2825 2825 2824 2824 2823 2823 2822 2822 2821 2820 2820 2819 2818 2818 2817 2816 2815 2815 2814 2813 2812 2812 2811 2811 2810 2810 2809 2809 2809 2809 2809 2809 2809 2810 2810 2809 2809 2808 2808 2807 2807 2806 2806 2806 2805 2805 2805 2805 2805 2806 2806 2806 2806 2806 2807 2807 2807 2807 2806 2806 2806 2806 2806 2805 2805 2805 2804 2804 2803 2803 2803 2802 2802 2802 2802 2802 2803 2803 2803 2803 2804 2804 2805 2805 2805 2806
2823 2823 2822 2822 2821 2821 2820 2820 2819 2818 2817 2816 2815 2815 2814 2813 2812 2812 2811 2810 2809 2809 2808 2807 2807 2806 2806 2806 2806 2806 2806 2806 2806 2806 2806 2806 2806 2806 2805 2805 2805 2804 2804 2803 2803 2803 2803 2802 2803 2803 2803 2804 2804 2804 2804 2804 2804 2804 2804 2804 2804 2804 2804 2804 2803 2803 2802 2802 2802 2801 2801 2801 2801 2801 2801 2801 2801 2802 2802 2802 2803 2803 2804 2804 2805 2805
2822 2821 2820 2820 2819 2819 2818 2817 2816 2815 2814 2813 2812 2811 2810 2810 2809 2808 2807 2807 2806 2805 2805 2804 2803 2803 2802 2802 2802 2802 2802 2802 2802 2803 2803 2803 2803 2803 2802 2802 2802 2801 2801 2800 2800 2800 2800 2800 2800 2800 2801 2801 2801 2801 2801 2801 2801 2801 2801 2801 2801 2801 2801 2801 2801 2801 2801 2800 2800 2800 2800 2800 2800 2800 2800 2800 2800 2800 2801 2801 2802 2802 2803 2804 2804 2805